Miscellaneous Local Product
Issued by NWS Hastings, NE

Home | Current Version | Previous Version | Graphics & Text | Print | Product List | Glossary On
Versions: 1 2 3 4 5 6 7 8 9 10 11 12 13 14 15 16 17 18 19 20 21 22 23 24 25 26 27 28 29 30 31 32 33 34 35 36 37 38 39 40 41 42 43 44 45 46 47 48 49 50
000
AXUS43 KGID 212102
MISGRI

GID CWA HOURLY WEATHER ROUNDUP
NATIONAL WEATHER SERVICE HASTINGS NE
400 PM CDT THU AUG 21 2014

NOTE: "FAIR" INDICATES FEW OR NO CLOUDS BELOW 12,000 FEET WITH NO
SIGNIFICANT WEATHER AND/OR OBSTRUCTIONS TO VISIBILITY.

...SOUTH CENTRAL NEBRASKA...

CITY           SKY/WX    TMP DP  RH WIND       PRES   REMARKS
GRAND ISLAND   MOSUNNY   87  71  58 VRB6      29.87S HX  93
HASTINGS       SUNNY     85  68  56 CALM      29.87S
KEARNEY        SUNNY     88  73  62 E6        29.88S HX  96
ORD            SUNNY     87  68  52 VRB3      29.86S HX  90
YORK           MOSUNNY   84 N/A N/A SW5       29.86F
AURORA         MOSUNNY   84  73  69 CALM      29.87S
LEXINGTON      SUNNY     89  68  49 CALM      29.89S HX  92
HOLDREGE       SUNNY     87  70  57 CALM      29.88S HX  92
HEBRON         SUNNY     88  69  52 S6        29.83S HX  93

...NEBRASKA PANHANDLE...

CITY           SKY/WX    TMP DP  RH WIND       PRES   REMARKS
CHADRON        SUNNY     89  53  29 VRB5      29.93F
ALLIANCE       MOSUNNY   86  49  27 CALM      29.99F
SCOTTSBLUFF    MOSUNNY   88  46  23 NW7       30.00F
SIDNEY         SUNNY     88  47  24 MISG      30.03F

...WESTERN AND NORTH CENTRAL NEBRASKA...

CITY           SKY/WX    TMP DP  RH WIND       PRES   REMARKS
VALENTINE      SUNNY     88  58  36 E8        29.93S
AINSWORTH      SUNNY     85  61  44 NE6       29.92F
ONEILL         SUNNY     87  69  55 NW7       29.88S HX  91
BROKEN BOW     SUNNY     89  67  47 N7        29.90S HX  92
IMPERIAL       SUNNY     90  49  24 N9        29.95S
NORTH PLATTE   SUNNY     88  65  46 SE5       29.90F HX  90
MCCOOK         MOSUNNY   94  55  26 NW7       29.89S HX  92

...EASTERN NEBRASKA...

CITY           SKY/WX    TMP DP  RH WIND       PRES   REMARKS
NORFOLK        SUNNY     90  71  53 W7        29.83R HX  96
SO SIOUX CITY  MOSUNNY   89  75  63 W6        29.80S HX  99
TEKAMAH        SUNNY     92  73  53 SW8       29.81S HX 100
COLUMBUS       MOSUNNY   88  73  62 S10       29.85S HX  96
ALBION         SUNNY     88  67  49 SW3       29.86R HX  91
OMAHA EPPLEY   MOSUNNY   91  68  46 SW9       29.83F HX  95
OFFUTT AFB     MOSUNNY   90  76  63 VRB3      29.83F HX 101
MILLARD        MOSUNNY   89  72  55 S6        29.83S HX  96
LINCOLN        CLOUDY    87  71  58 NW7       29.85S HX  93
NEBRASKA CITY  CLOUDY    84  76  76 NE8       29.83F HX  92
BEATRICE       CLOUDY    91  73  55 S8        29.82F HX  99
FALLS CITY     PTSUNNY   96  73  47 S12G23    29.80F HX 105

...NORTHERN KANSAS...

CITY           SKY/WX    TMP DP  RH WIND       PRES   REMARKS
GOODLAND       SUNNY     93  47  20 N13       29.97F
HILL CITY      SUNNY     97  62  31 N7        29.85S HX  98
NORTON         CLEAR     95  48  20 N5        29.85F HX  91
PHILLIPSBURG   SUNNY     97  61  30 NW3       29.82F HAZE    HX  97
SMITH CENTER   SUNNY     95  64  36 SW10      29.82S HX  97
BELOIT         SUNNY     99  66  34 S13       29.79S HX 102
HAYS           MOSUNNY   99  64  32 SW15G24   29.83S HX 101
RUSSELL        SUNNY     98  67  36 S16G28    29.82S HX 102
CONCORDIA      SUNNY     94  69  44 S16G25    29.82S HX  99
SALINA         SUNNY    100  67  33 S20G31    29.81F HX 105
TOPEKA         SUNNY     99  71  40 S13G21    29.84F HX 107



USA.gov is the U.S. government's official web portal to all federal, state and local government web resources and services.